Regional Weather Roundup
Issued by NWS Green Bay, WI

Home | Current Version | Previous Version | Graphics & Text | Print | Product List | Glossary Off
Versions: 1 2 3 4 5 6 7 8 9 10 11 12 13 14 15 16 17 18 19 20 21 22 23 24 25 26 27 28 29 30 31 32 33 34 35 36 37 38 39 40 41 42 43 44 45 46 47 48 49 50

000
ASUS43 KGRB 080000
RWRGRB

NORTH-CENTRAL AND NORTHEAST WISCONSIN REGIONAL WEATHER ROUNDUP
NATIONAL WEATHER SERVICE GREEN BAY WI
600 PM CST WED DEC 07 2016

WIZ005-009-010>012-018-019-080100-
NORTH CENTRAL WISCONSIN

CITY           SKY/WX    TMP DP  RH WIND       PRES   REMARKS
IRONWOOD       NOT AVBL
MANITOWISH WTR NOT AVBL
ARBOR VITAE    NOT AVBL
EAGLE RIVER    NOT AVBL
LAND O LAKES   NOT AVBL
RHINELANDER    CLOUDY    19  12  74 W23G30    29.86R WCI   2
PHILLIPS       NOT AVBL
ANTIGO         NOT AVBL
TOMAHAWK       NOT AVBL
MERRILL        NOT AVBL
$$

WIZ013-073-080100-
NORTHEAST WISCONSIN

CITY           SKY/WX    TMP DP  RH WIND       PRES   REMARKS
IRON MOUNTAIN  NOT AVBL
MARINETTE      NOT AVBL
$$

WIZ017-030-035>037-045-080100-
CENTRAL WISCONSIN

CITY           SKY/WX    TMP DP  RH WIND       PRES   REMARKS
MEDFORD        NOT AVBL
WAUSAU         CLOUDY    19  12  74 W16G30    29.94R WCI   4
MOSINEE        CLOUDY    19  14  79 W18G29    29.96R WCI   4
MARSHFIELD     CLOUDY    18  11  74 W14       29.97R WCI   4
WISC RAPIDS    CLOUDY    20  12  71 W10G25    30.02R WCI   9
STEVENS POINT  NOT AVBL
WAUPACA        NOT AVBL
SHAWANO        NOT AVBL
CLINTONVILLE   NOT AVBL
WAUTOMA        FLURRIES  21  14  74 W16G22    30.03R WCI   7
$$

WIZ038-039-048-051-080100-
FOX VALLEY

CITY           SKY/WX    TMP DP  RH WIND       PRES   REMARKS
NWS GREEN BAY  CLOUDY    26  15  63 W20G28    29.97R
APPLETON       FLURRIES  21  12  68 W18G28    29.97R WCI   6
OSHKOSH        CLOUDY    22  13  68 W10G23    30.00R
FOND DU LAC    CLOUDY    22  11  62 W15G26    30.03R WCI   9
$$

WIZ022-050-052-080100-
EAST CENTRAL WISCONSIN

CITY           SKY/WX    TMP DP  RH WIND       PRES   REMARKS
EPHRAIM        NOT AVBL
WASHINGTON ISL NOT AVBL
STURGEON BAY   CLOUDY    25  16  68 W13       29.93R
MANITOWOC      NOT AVBL
SHEBOYGAN      CLOUDY    22  13  68 W15G25    30.01R WCI   9
$$

LMZ563-521-522-541>543-080100-
LAKESHORE

STATION/POSITION TIME  TEMP    WIND        PRES    VSBY  WAVE
                       AIR SEA DIR/SP/G                  HT/PER
                 (UTC) (F)     (DEG/KT/KT) (MB)    (MI)  (FT/S)
SHEBOYGAN LKSHOR 2300   23     260/ 15/ 18 1016.9R
KEWAUNEE LKSHORE 2324   25     270/ 10/ 18 1013.9
NORTHPORT PIER   2340   25     270/  9/ 19 1012.5R
SISTER BAY LKSHO 2309   27     300/ 23/ 28   N/A
CHAMBERS ISLAND  2340   24     240/ 14/ 27 1012.5R
MENOMINEE LKSHOR 2324   24     240/ 12/ 23 1012.3
$$



USA.gov is the U.S. government's official web portal to all federal, state and local government web resources and services.